Onweer trekt over Ninove

StormCell - Onweer anders bekeken

Welkom op Stormcell.be, dé website waar onweer al sinds 2011 anders wordt bekeken.

Op onze site vindt de bezoeker duidelijke weermodellen, data van het StormCell weerstation in regio Ninove (België) én kan men het onweer live volgen via lightningmaps.org.

We beschikken over een Facebook pagina waar weer gerelateerde berichten worden gedeeld en waar we zelf ook waarschuwingen voor onweer of noodweer uitsturen indien nodig.

U leest het goed: indien nodig, dus geen onheilspellende berichten als de storm of het onweer slechts in een glas water zal woeden. We zijn niet uit op sensatie of het zaaien van angst. We bekijken het onweer met klare kijk op de feiten. 

[Source: ADDS]
METAR
EBBR 170320Z 27009KT 9999 SCT006 BKN010 13/12 Q1008 TEMPO BKN004 BECMG NSW FEW015 =
EBBR 162303Z 1700/1806 20008KT 4000 -RADZ SCT004 BKN008 PROB40 TEMPO 1700/1703 2000 DZ BKN004 BECMG 1703/1705 9999 NSW FEW015 SCT025
TAF
EBBR 162303Z 1700/1806 20008KT 4000 -RADZ SCT004 BKN008 PROB40 TEMPO 1700/1703 2000 DZ BKN004 BECMG 1703/1705 9999 NSW FEW015 SCT025 =

Visweer Vlissingen

StormCell is een non profit organisatie zonder oogmerk tot sensatie